Regional Weather Roundup
Issued by NWS Northern Indiana

Home | Current Version | Previous Version | Graphics & Text | Print | Product List | Glossary On
Versions: 1 2 3 4 5 6 7 8 9 10 11 12 13 14 15 16 17 18 19 20 21 22 23 24 25 26 27 28 29 30 31 32 33 34 35 36 37 38 39 40 41 42 43 44 45 46 47 48 49 50
000
ASUS43 KIWX 012210
RWRIWX

KIWX WEATHER ROUNDUP
NATIONAL WEATHER SERVICE NORTHERN INDIANA
600 PM EDT WED APR 01 2015

NOTE: "FAIR" INDICATES FEW OR NO CLOUDS BELOW 12,000 FEET WITH NO
SIGNIFICANT WEATHER AND/OR OBSTRUCTIONS TO VISIBILITY.

* THESE STATIONS ARE NOT UNDER NWS QUALITY CONTROL. THEY ALSO MAY NOT
  REPORT WEATHER SUCH AS PRECIPITATION OR FOG.

INZ001>027-012300-
NORTHERN INDIANA

CITY           SKY/WX    TMP DP  RH WIND       PRES   REMARKS
GARY*          MOSUNNY   73  23  15 S14G28    29.93F
VALPARAISO     SUNNY     70  35  27 S14       29.96F
MICHIGAN CITY* SUNNY     70  28  21 SW14G21   29.95F
LAPORTE*       SUNNY     71  36  27 S12       29.97F
KNOX*          SUNNY     70  -9   4 S15G21    29.97S
SOUTH BEND     SUNNY     70  33  25 S15       29.97F
ELKHART*       SUNNY     68  30  24 SW12      29.98F
GOSHEN         SUNNY     68  36  30 SW13      29.98F
MONTICELLO*    SUNNY     69  37  31 S8        29.99F
LOGANSPORT*    SUNNY     68  34  28 S9        30.02S
ROCHESTER*     SUNNY     70  34  26 S10       30.01S
WARSAW*        SUNNY     68  36  30 SW8       30.00F
ANGOLA*        SUNNY     66  36  32 S9        30.00S
FORT WAYNE     MOSUNNY   67  35  30 S10       30.03F
HUNTINGTON*    SUNNY     66  25  21 S5        30.02S
PERU/GRISSOM   SUNNY     68  36  30 S10       30.01F
MARION*        SUNNY     66  32  28 S14       30.04S

$$
INZ028>050-012300-
CENTRAL INDIANA

CITY           SKY/WX    TMP DP  RH WIND       PRES   REMARKS
LAFAYETTE      SUNNY     69  35  28 S12       29.99F
KOKOMO*        SUNNY     66  37  34 S14       30.02F
MUNCIE*        SUNNY     67  32  27 S10       30.04S
INDIANAPOLIS   MOSUNNY   68  32  26 SE13G24   30.01F

$$
MIZ043>046-050>051-056>058-064>065-071>073-077>080-012300-
SOUTHWEST LOWER MICHIGAN

CITY           SKY/WX    TMP DP  RH WIND       PRES   REMARKS
BATTLE CREEK   SUNNY     66  34  30 S7        29.98F
BENTON HARBOR  SUNNY     69  36  29 SW13      29.94F
COLDWATER*     SUNNY     65  31  28 SW8       29.99F
HILLSDALE*     SUNNY     65  30  26 S5        30.00F
HOLLAND        SUNNY     69  35  28 S8        29.94F
GRAND RAPIDS   MOSUNNY   64  34  32 S9        29.95F
KALAMAZOO      SUNNY    N/A N/A N/A MISG      29.98F
STURGIS*       SUNNY     66  37  34 S12       29.98F
THREE RIVERS*  FAIR      68  36  30 SW9       29.98F

$$
OHZ001>008-015>018-024>025-012300-
NORTHWEST OHIO

CITY           SKY/WX    TMP DP  RH WIND       PRES   REMARKS
WAUSEON*       FAIR      64  32  29 CALM      30.02F
DEFIANCE       SUNNY     66  33  29 VRB6      30.03F
FINDLAY        SUNNY     65  32  29 S5        30.04F
TOLEDO EXPRESS SUNNY     65  31  28 SW9       30.02F
TOLEDO METCALF SUNNY     64  33  31 VRB6      30.04F
LIMA           SUNNY     66  30  26 S7        30.05S

$$
AND FOR LAKE MICHIGAN COASTAL AND OPEN LAKE BUOY OBSERVATIONS

STATION/POSITION TEMP    WIND        PRES    VSBY  WAVE
                 AIR SEA DIR/SP/G                  HT/PER
                 (F)     (DEG/KT/KT) (MB)    (MI)  (FT/S)
CALUMET HARBOR    70     170/ 16/ 24 1011.9F
MICHIGAN CITY            160/ 12/ 18   N/A
BURNS HARBOR      67     190/ 15/ 21 1014.2S
SAINT JOSEPH      62     190/  7/ 11 1014.2S

$$
&&


USA.gov is the U.S. government's official web portal to all federal, state and local government web resources and services.